Location: Newark
(47.9297°N, 19.1367°E)
Time: 07:51:26
(UTC+00:00)

X-37B - Visible Passes

Search period start: 20 September 2020 00:00
Search period end: 30 September 2020 00:00
Orbit: 386 x 387 km, 45.0° (Epoch: 18 September)

Date Brightness Start Highest point End Pass type
(mag) Time Alt. Az. Time Alt. Az. Time Alt. Az.
20 Sep 1.1 03:05:33 31° WSW 03:06:34 44° S 03:09:38 10° ESE visible
21 Sep 2.7 02:09:45 23° ESE 02:09:45 23° ESE 02:11:10 10° ESE visible
21 Sep 1.9 03:42:02 12° WSW 03:44:22 26° SSW 03:47:05 10° SE visible
22 Sep 1.6 02:46:20 33° S 02:46:20 33° S 02:48:52 10° SE visible
23 Sep 2.3 03:23:01 17° SW 03:23:37 18° SSW 03:25:54 10° SSE visible
24 Sep 3.3 02:27:32 13° SSE 02:27:32 13° SSE 02:27:57 10° SE visible
